Location: DARK SKY Beskydy - Park tmavé oblohy, www.darkskybeskydy.cz
(49.4926°N, 18.5016°E)
Time: 23:48:37
(UTC+02:00)

Transit 2A - Visible Passes

Search period start: 07 October 2024 00:00
Search period end: 17 October 2024 00:00
Orbit: 590 x 960 km, 66.7° (Epoch: 06 October)

Date Brightness Start Highest point End Pass type
(mag) Time Alt. Az. Time Alt. Az. Time Alt. Az.
07 Oct 8.3 19:06:35 10° NNW 19:10:33 17° N 19:14:26 10° NE visible
07 Oct 7.4 20:50:12 10° NNW 20:55:45 32° NE 20:55:53 32° NE visible
07 Oct 8.0 22:33:24 10° NW 22:36:16 28° NW 22:36:16 28° NW visible
08 Oct 7.5 20:14:44 10° NNW 20:19:56 27° NNE 20:21:18 24° NE visible
08 Oct 7.5 21:57:52 10° NW 22:01:41 39° NNW 22:01:41 39° NNW visible
09 Oct 7.8 19:39:14 10° NNW 19:44:05 23° NNE 19:46:44 17° ENE visible
09 Oct 7.0 21:22:22 10° NNW 21:27:07 49° N 21:27:07 49° N visible
09 Oct 8.8 23:06:10 10° NW 23:07:30 16° WNW 23:07:30 16° WNW visible
10 Oct 8.0 19:03:41 10° NNW 19:08:10 20° NNE 19:12:12 11° ENE visible
10 Oct 6.7 20:46:54 10° NNW 20:52:35 48° NE 20:52:35 48° NE visible
10 Oct 8.3 22:30:23 10° NW 22:32:59 24° WNW 22:32:59 24° WNW visible
11 Oct 8.1 18:28:02 10° NNW 18:32:12 18° NNE 18:36:14 10° NE visible
11 Oct 6.9 20:11:26 10° NNW 20:17:12 38° NE 20:18:05 36° ENE visible
11 Oct 7.6 21:54:43 10° NW 21:58:29 36° WNW 21:58:29 36° WNW visible
12 Oct 7.3 19:35:58 10° NNW 19:41:26 31° NE 19:43:37 24° ENE visible
12 Oct 6.8 21:19:08 10° NW 21:24:01 57° NW 21:24:01 57° NW visible
12 Oct 9.0 23:04:07 10° WNW 23:04:25 11° WNW 23:04:25 11° WNW visible
13 Oct 7.6 19:00:28 10° NNW 19:05:36 26° NNE 19:09:12 15° ENE visible
13 Oct 6.2 20:43:36 10° NW 20:49:35 78° NNE 20:49:35 78° NNE visible
13 Oct 8.6 22:27:48 10° WNW 22:29:59 18° WNW 22:29:59 18° WNW visible
14 Oct 7.8 18:24:57 10° NNW 18:29:42 22° NNE 18:34:14 10° ENE visible
14 Oct 6.3 20:08:06 10° NNW 20:14:11 60° NE 20:15:13 52° E visible
14 Oct 7.9 21:51:51 10° NW 21:55:37 27° W 21:55:37 27° W visible
15 Oct 6.7 19:32:36 10° NNW 19:38:32 46° NE 19:40:53 31° E visible
15 Oct 7.2 21:16:04 10° NW 21:21:18 42° WSW 21:21:18 42° WSW visible
16 Oct 7.0 18:57:07 10° NNW 19:02:48 37° NE 19:06:38 17° E visible
16 Oct 6.5 20:40:23 10° NW 20:46:20 59° WSW 20:47:03 55° SSW visible
16 Oct 9.0 22:27:23 10° W 22:27:27 10° W 22:27:27 10° W visible
